Date,TemperatureHighF,TemperatureAvgF,TemperatureLowF,DewpointHighF,DewpointAvgF,DewpointLowF,HumidityHigh,HumidityAvg,HumidityLow,PressureMaxIn,PressureMinIn,WindSpeedMaxMPH,WindSpeedAvgMPH,GustSpeedMaxMPH,PrecipitationSumIn
2013-2-1,36.1,31.4,26.8,15.9,12.7,4.7,59,47,30,30.27,29.82,32,12,32,0.00
2013-2-2,33.1,27.7,22.1,20.6,10.1,4.7,75,49,32,30.36,30.09,25,10,25,0.00
2013-2-3,35.1,30.7,27.1,25.2,21.7,18.0,80,69,56,30.09,29.81,15,4,17,0.01
2013-2-4,33.6,30.2,26.2,22.3,13.2,8.8,70,49,37,30.01,29.83,30,13,30,0.01
2013-2-5,34.7,32.9,30.4,30.1,26.2,16.4,83,76,54,30.01,29.93,9,2,10,0.00
2013-2-6,42.6,36.9,32.4,31.0,23.2,6.9,88,60,31,30.40,29.95,26,7,29,0.01
2013-2-7,36.9,32.9,29.8,21.8,13.0,7.5,60,44,35,30.55,30.36,8,3,8,0.00
2013-2-8,36.5,34.6,30.6,32.8,29.3,21.8,91,81,60,30.37,29.64,15,4,15,0.26
2013-2-9,33.4,30.7,26.2,30.4,26.4,18.8,93,84,72,30.38,29.78,24,7,24,0.01
2013-2-10,35.8,30.4,24.3,28.2,23.2,17.5,79,74,69,30.54,30.36,17,3,17,0.26
2013-2-11,45.7,40.6,34.0,44.2,37.7,26.9,95,89,76,30.38,29.69,15,2,15,0.32
2013-2-12,48.2,43.1,39.0,41.8,29.3,25.5,90,60,45,30.01,29.75,30,13,30,0.00
2013-2-13,50.0,41.6,35.4,32.9,27.5,24.9,79,58,44,29.99,29.72,14,3,14,0.01
2013-2-14,51.8,42.4,36.5,34.3,31.7,27.4,82,68,42,30.04,29.73,11,3,11,0.00
2013-2-15,57.9,45.9,38.5,38.5,34.1,28.7,77,65,43,30.06,29.95,14,4,14,0.00
2013-2-18,39.7,36.2,34.3,13.7,9.0,1.6,43,34,23,30.26,30.21,21,8,21,0.00
2013-2-19,50.9,41.7,34.0,43.8,29.7,12.6,90,65,40,30.25,29.70,35,6,35,0.04
2013-2-20,40.3,33.8,28.6,28.5,15.1,9.2,63,47,35,30.03,29.75,37,16,37,0.01
2013-2-21,40.1,32.0,27.1,16.7,13.3,10.5,57,47,35,30.32,30.02,35,11,35,0.00
2013-2-22,43.0,35.4,28.6,32.2,22.9,15.2,76,61,47,30.45,30.30,10,4,10,0.00
2013-2-23,46.2,40.5,37.8,43.7,37.2,31.9,92,88,75,30.33,29.83,11,3,11,0.33
2013-2-24,53.6,42.7,36.3,40.0,33.1,22.6,92,71,49,30.01,29.76,24,6,24,0.02
2013-2-25,52.7,41.6,35.1,30.5,26.5,23.2,69,56,41,30.26,30.01,11,4,14,0.00
2013-2-26,46.6,41.4,37.2,35.1,31.2,28.0,86,67,53,30.35,29.91,14,5,15,0.07
2013-2-27,49.1,43.7,38.3,46.3,39.7,-7.6,93,86,71,29.93,29.52,24,6,26,1.50
2013-2-28,56.5,47.3,42.1,39.4,35.3,29.1,79,64,45,29.66,29.57,19,5,19,0.00